Location: Ellerstadt
(49.4644°N, 8.2615°E)
Time: 11:35:38
(UTC+00:00)

USA 308 - Pass Details

Date: 03 March 2021
Orbit: 568 x 576 km, 54.0° (Epoch: 13 April)

Event Time Altitude Azimuth Distance (km) Brightness Sun altitude
Rises 18:26:42 0° 274° (W) 2,777 8.5 -12.7°
Reaches altitude 10° 18:29:02 10° 281° (W) 1,878 7.0 -13.1°
Maximum altitude 18:33:09 45° 355° (N) 780 3.6 -13.8°
Enters shadow 18:35:58 19° 62° (ENE) 1,406 4.4 -14.2°
